owner,sensor,date,latitude,longitude,vertical_datum,sea_water_temperature,qcFlag 
TABS,ioos:station:TABS:A:1,1996-04-17T00:00:00Z,29.5325,-93.8116,-2.0,19.05,11111222 
TABS,ioos:station:TABS:A:1,1996-04-17T16:00:00Z,29.5325,-93.8116,-2.0,19.05,11111222 
TABS,ioos:station:TABS:A:1,1996-04-17T16:30:00Z,29.5325,-93.8116,-2.0,19.09,11111222 
TABS,ioos:station:TABS:A:1,1996-04-17T17:00:00Z,29.5325,-93.8116,-2.0,19.13,11111222 
TABS,ioos:station:TABS:A:1,1996-04-17T17:30:00Z,29.5325,-93.8116,-2.0,19.22,11111222 
TABS,ioos:station:TABS:A:1,1996-04-17T18:00:00Z,29.5325,-93.8116,-2.0,19.22,11111222 
TABS,ioos:station:TABS:A:1,1996-04-17T18:30:00Z,29.5325,-93.8116,-2.0,19.25,11111222 
TABS,ioos:station:TABS:A:1,1996-04-17T19:00:00Z,29.5325,-93.8116,-2.0,19.32,11111222 
TABS,ioos:station:TABS:A:1,1996-04-17T19:30:00Z,29.5325,-93.8116,-2.0,19.41,11111222 
TABS,ioos:station:TABS:A:1,1996-04-17T20:00:00Z,29.5325,-93.8116,-2.0,19.4,11111222 
TABS,ioos:station:TABS:A:1,1996-04-17T20:30:00Z,29.5325,-93.8116,-2.0,19.43,11111222 
TABS,ioos:station:TABS:A:1,1996-04-17T21:00:00Z,29.5325,-93.8116,-2.0,19.43,11111222 
TABS,ioos:station:TABS:A:1,1996-04-17T21:30:00Z,29.5325,-93.8116,-2.0,19.5,11111222 
TABS,ioos:station:TABS:A:1,1996-04-17T22:00:00Z,29.5325,-93.8116,-2.0,19.53,11111222 
TABS,ioos:station:TABS:A:1,1996-04-17T22:30:00Z,29.5325,-93.8116,-2.0,19.53,11111222 
TABS,ioos:station:TABS:A:1,1996-04-17T23:00:00Z,29.5325,-93.8116,-2.0,19.37,11111222 
TABS,ioos:station:TABS:A:1,1996-04-17T23:30:00Z,29.5325,-93.8116,-2.0,19.47,11111222 
TABS,ioos:station:TABS:A:1,1996-04-18T00:00:00Z,29.5325,-93.8116,-2.0,19.47,11111222 
TABS,ioos:station:TABS:A:1,1996-04-18T00:30:00Z,29.5325,-93.8116,-2.0,19.43,11111222 
TABS,ioos:station:TABS:A:1,1996-04-18T01:00:00Z,29.5325,-93.8116,-2.0,19.45,11111222 
TABS,ioos:station:TABS:A:1,1996-04-18T01:30:00Z,29.5325,-93.8116,-2.0,19.45,11111222 
TABS,ioos:station:TABS:A:1,1996-04-18T02:00:00Z,29.5325,-93.8116,-2.0,19.41,11111222 
TABS,ioos:station:TABS:A:1,1996-04-18T02:30:00Z,29.5325,-93.8116,-2.0,19.47,11111222 
TABS,ioos:station:TABS:A:1,1996-04-18T03:00:00Z,29.5325,-93.8116,-2.0,19.44,11111222 
TABS,ioos:station:TABS:A:1,1996-04-18T03:30:00Z,29.5325,-93.8116,-2.0,19.41,11111222 
TABS,ioos:station:TABS:A:1,1996-04-18T04:00:00Z,29.5325,-93.8116,-2.0,19.33,11111222 
TABS,ioos:station:TABS:A:1,1996-04-18T04:30:00Z,29.5325,-93.8116,-2.0,19.24,11111222 
TABS,ioos:station:TABS:A:1,1996-04-18T05:00:00Z,29.5325,-93.8116,-2.0,19.15,11111222 
TABS,ioos:station:TABS:A:1,1996-04-18T05:30:00Z,29.5325,-93.8116,-2.0,19.1,11111222 
TABS,ioos:station:TABS:A:1,1996-04-18T06:00:00Z,29.5325,-93.8116,-2.0,19.07,11111222 
TABS,ioos:station:TABS:A:1,1996-04-18T06:30:00Z,29.5325,-93.8116,-2.0,19.05,11111222 
TABS,ioos:station:TABS:A:1,1996-04-18T07:00:00Z,29.5325,-93.8116,-2.0,19.05,11111222 
TABS,ioos:station:TABS:A:1,1996-04-18T07:30:00Z,29.5325,-93.8116,-2.0,19.04,11111222 
TABS,ioos:station:TABS:A:1,1996-04-18T08:00:00Z,29.5325,-93.8116,-2.0,19.02,11111222 
TABS,ioos:station:TABS:A:1,1996-04-18T08:30:00Z,29.5325,-93.8116,-2.0,19.01,11111222 
TABS,ioos:station:TABS:A:1,1996-04-18T09:00:00Z,29.5325,-93.8116,-2.0,19.03,11111222 
TABS,ioos:station:TABS:A:1,1996-04-18T09:30:00Z,29.5325,-93.8116,-2.0,19.04,11111222 
TABS,ioos:station:TABS:A:1,1996-04-18T10:00:00Z,29.5325,-93.8116,-2.0,19.04,11111222 
TABS,ioos:station:TABS:A:1,1996-04-18T10:30:00Z,29.5325,-93.8116,-2.0,19.02,11111222 
TABS,ioos:station:TABS:A:1,1996-04-18T11:00:00Z,29.5325,-93.8116,-2.0,19.02,11111222 
TABS,ioos:station:TABS:A:1,1996-04-18T11:30:00Z,29.5325,-93.8116,-2.0,19.03,11111222 
TABS,ioos:station:TABS:A:1,1996-04-18T12:00:00Z,29.5325,-93.8116,-2.0,19.02,11111222 
TABS,ioos:station:TABS:A:1,1996-04-18T12:30:00Z,29.5325,-93.8116,-2.0,19.02,11111222 
TABS,ioos:station:TABS:A:1,1996-04-18T13:00:00Z,29.5325,-93.8116,-2.0,19.03,11111222 
TABS,ioos:station:TABS:A:1,1996-04-18T13:30:00Z,29.5325,-93.8116,-2.0,19.05,11111222 
TABS,ioos:station:TABS:A:1,1996-04-18T14:00:00Z,29.5325,-93.8116,-2.0,19.07,11111222 
TABS,ioos:station:TABS:A:1,1996-04-18T14:30:00Z,29.5325,-93.8116,-2.0,19.08,11111222 
TABS,ioos:station:TABS:A:1,1996-04-18T15:00:00Z,29.5325,-93.8116,-2.0,19.11,11111222 
TABS,ioos:station:TABS:A:1,1996-04-18T15:30:00Z,29.5325,-93.8116,-2.0,19.15,11111222 
TABS,ioos:station:TABS:A:1,1996-04-18T16:00:00Z,29.5325,-93.8116,-2.0,19.19,11111222 
TABS,ioos:station:TABS:A:1,1996-04-18T16:30:00Z,29.5325,-93.8116,-2.0,19.22,11111222 
TABS,ioos:station:TABS:A:1,1996-04-18T17:00:00Z,29.5325,-93.8116,-2.0,19.29,11111222 
TABS,ioos:station:TABS:A:1,1996-04-18T17:30:00Z,29.5325,-93.8116,-2.0,19.4,11111222 
TABS,ioos:station:TABS:A:1,1996-04-18T18:00:00Z,29.5325,-93.8116,-2.0,19.47,11111222 
TABS,ioos:station:TABS:A:1,1996-04-18T18:30:00Z,29.5325,-93.8116,-2.0,19.65,11111222 
TABS,ioos:station:TABS:A:1,1996-04-18T19:00:00Z,29.5325,-93.8116,-2.0,19.65,11111222 
TABS,ioos:station:TABS:A:1,1996-04-18T19:30:00Z,29.5325,-93.8116,-2.0,19.69,11111222 
TABS,ioos:station:TABS:A:1,1996-04-18T20:00:00Z,29.5325,-93.8116,-2.0,19.9,11111222 
TABS,ioos:station:TABS:A:1,1996-04-18T20:30:00Z,29.5325,-93.8116,-2.0,19.79,11111222 
TABS,ioos:station:TABS:A:1,1996-04-18T21:00:00Z,29.5325,-93.8116,-2.0,19.89,11111222 
TABS,ioos:station:TABS:A:1,1996-04-18T21:30:00Z,29.5325,-93.8116,-2.0,19.94,11111222 
TABS,ioos:station:TABS:A:1,1996-04-18T22:00:00Z,29.5325,-93.8116,-2.0,20.01,11111222 
TABS,ioos:station:TABS:A:1,1996-04-18T22:30:00Z,29.5325,-93.8116,-2.0,20.04,11111222 
TABS,ioos:station:TABS:A:1,1996-04-18T23:00:00Z,29.5325,-93.8116,-2.0,20.05,11111222 
TABS,ioos:station:TABS:A:1,1996-04-18T23:30:00Z,29.5325,-93.8116,-2.0,20.05,11111222 
TABS,ioos:station:TABS:A:1,1996-04-19T00:00:00Z,29.5325,-93.8116,-2.0,20.08,11111222 
TABS,ioos:station:TABS:A:1,1996-04-19T00:30:00Z,29.5325,-93.8116,-2.0,19.63,11111222 
TABS,ioos:station:TABS:A:1,1996-04-19T01:00:00Z,29.5325,-93.8116,-2.0,19.58,11111222 
TABS,ioos:station:TABS:A:1,1996-04-19T01:30:00Z,29.5325,-93.8116,-2.0,19.59,11111222 
TABS,ioos:station:TABS:A:1,1996-04-19T02:00:00Z,29.5325,-93.8116,-2.0,19.58,11111222 
TABS,ioos:station:TABS:A:1,1996-04-19T02:30:00Z,29.5325,-93.8116,-2.0,19.54,11111222 
TABS,ioos:station:TABS:A:1,1996-04-19T03:00:00Z,29.5325,-93.8116,-2.0,19.51,11111222 
TABS,ioos:station:TABS:A:1,1996-04-19T03:30:00Z,29.5325,-93.8116,-2.0,19.5,11111222 
TABS,ioos:station:TABS:A:1,1996-04-19T04:00:00Z,29.5325,-93.8116,-2.0,19.43,11111222 
TABS,ioos:station:TABS:A:1,1996-04-19T04:30:00Z,29.5325,-93.8116,-2.0,19.45,11111222 
TABS,ioos:station:TABS:A:1,1996-04-19T05:00:00Z,29.5325,-93.8116,-2.0,19.39,11111222 
TABS,ioos:station:TABS:A:1,1996-04-19T05:30:00Z,29.5325,-93.8116,-2.0,19.42,11111222 
TABS,ioos:station:TABS:A:1,1996-04-19T06:00:00Z,29.5325,-93.8116,-2.0,19.44,11111222 
TABS,ioos:station:TABS:A:1,1996-04-19T06:30:00Z,29.5325,-93.8116,-2.0,19.42,11111222 
TABS,ioos:station:TABS:A:1,1996-04-19T07:00:00Z,29.5325,-93.8116,-2.0,19.39,11111222 
TABS,ioos:station:TABS:A:1,1996-04-19T07:30:00Z,29.5325,-93.8116,-2.0,19.38,11111222 
TABS,ioos:station:TABS:A:1,1996-04-19T08:00:00Z,29.5325,-93.8116,-2.0,19.37,11111222 
TABS,ioos:station:TABS:A:1,1996-04-19T08:30:00Z,29.5325,-93.8116,-2.0,19.38,11111222 
TABS,ioos:station:TABS:A:1,1996-04-19T09:00:00Z,29.5325,-93.8116,-2.0,19.38,11111222 
TABS,ioos:station:TABS:A:1,1996-04-19T09:30:00Z,29.5325,-93.8116,-2.0,19.39,11111222 
TABS,ioos:station:TABS:A:1,1996-04-19T10:00:00Z,29.5325,-93.8116,-2.0,19.41,11111222 
TABS,ioos:station:TABS:A:1,1996-04-19T10:30:00Z,29.5325,-93.8116,-2.0,19.64,11111222 
TABS,ioos:station:TABS:A:1,1996-04-19T11:00:00Z,29.5325,-93.8116,-2.0,19.74,11111222 
TABS,ioos:station:TABS:A:1,1996-04-19T11:30:00Z,29.5325,-93.8116,-2.0,19.96,11111222 
TABS,ioos:station:TABS:A:1,1996-04-19T12:00:00Z,29.5325,-93.8116,-2.0,20.02,11111222 
TABS,ioos:station:TABS:A:1,1996-04-19T12:30:00Z,29.5325,-93.8116,-2.0,20.04,11111222 
TABS,ioos:station:TABS:A:1,1996-04-19T13:00:00Z,29.5325,-93.8116,-2.0,20.02,11111222 
TABS,ioos:station:TABS:A:1,1996-04-19T13:30:00Z,29.5325,-93.8116,-2.0,19.97,11111222 
TABS,ioos:station:TABS:A:1,1996-04-19T14:00:00Z,29.5325,-93.8116,-2.0,19.93,11111222 
TABS,ioos:station:TABS:A:1,1996-04-19T14:30:00Z,29.5325,-93.8116,-2.0,19.93,11111222 
TABS,ioos:station:TABS:A:1,1996-04-19T15:00:00Z,29.5325,-93.8116,-2.0,19.9,11111222 
TABS,ioos:station:TABS:A:1,1996-04-19T15:30:00Z,29.5325,-93.8116,-2.0,19.93,11111222 
TABS,ioos:station:TABS:A:1,1996-04-19T16:00:00Z,29.5325,-93.8116,-2.0,19.89,11111222 
TABS,ioos:station:TABS:A:1,1996-04-19T16:30:00Z,29.5325,-93.8116,-2.0,19.95,11111222 
TABS,ioos:station:TABS:A:1,1996-04-19T17:00:00Z,29.5325,-93.8116,-2.0,20.02,11111222 
TABS,ioos:station:TABS:A:1,1996-04-19T17:30:00Z,29.5325,-93.8116,-2.0,20.12,11111222 
TABS,ioos:station:TABS:A:1,1996-04-19T18:00:00Z,29.5325,-93.8116,-2.0,20.19,11111222 
TABS,ioos:station:TABS:A:1,1996-04-19T18:30:00Z,29.5325,-93.8116,-2.0,20.15,11111222 
TABS,ioos:station:TABS:A:1,1996-04-19T19:00:00Z,29.5325,-93.8116,-2.0,20.17,11111222 
TABS,ioos:station:TABS:A:1,1996-04-19T19:30:00Z,29.5325,-93.8116,-2.0,20.23,11111222 
TABS,ioos:station:TABS:A:1,1996-04-19T20:00:00Z,29.5325,-93.8116,-2.0,20.5,11111222 
TABS,ioos:station:TABS:A:1,1996-04-19T20:30:00Z,29.5325,-93.8116,-2.0,20.55,11111222 
TABS,ioos:station:TABS:A:1,1996-04-19T21:00:00Z,29.5325,-93.8116,-2.0,20.52,11111222 
TABS,ioos:station:TABS:A:1,1996-04-19T21:30:00Z,29.5325,-93.8116,-2.0,20.26,11111222 
TABS,ioos:station:TABS:A:1,1996-04-19T22:00:00Z,29.5325,-93.8116,-2.0,20.09,11111222 
TABS,ioos:station:TABS:A:1,1996-04-19T22:30:00Z,29.5325,-93.8116,-2.0,20.35,11111222 
TABS,ioos:station:TABS:A:1,1996-04-19T23:00:00Z,29.5325,-93.8116,-2.0,20.04,11111222 
TABS,ioos:station:TABS:A:1,1996-04-19T23:30:00Z,29.5325,-93.8116,-2.0,20.28,11111222 
TABS,ioos:station:TABS:A:1,1996-04-20T00:00:00Z,29.5325,-93.8116,-2.0,20.45,11111222 
TABS,ioos:station:TABS:A:1,1996-04-20T00:30:00Z,29.5325,-93.8116,-2.0,20.46,11111222 
TABS,ioos:station:TABS:A:1,1996-04-20T01:00:00Z,29.5325,-93.8116,-2.0,20.65,11111222 
TABS,ioos:station:TABS:A:1,1996-04-20T01:30:00Z,29.5325,-93.8116,-2.0,20.54,11111222 
TABS,ioos:station:TABS:A:1,1996-04-20T02:00:00Z,29.5325,-93.8116,-2.0,20.23,11111222 
TABS,ioos:station:TABS:A:1,1996-04-20T02:30:00Z,29.5325,-93.8116,-2.0,20.09,11111222 
TABS,ioos:station:TABS:A:1,1996-04-20T03:00:00Z,29.5325,-93.8116,-2.0,20.08,11111222 
TABS,ioos:station:TABS:A:1,1996-04-20T03:30:00Z,29.5325,-93.8116,-2.0,20.04,11111222 
TABS,ioos:station:TABS:A:1,1996-04-20T04:00:00Z,29.5325,-93.8116,-2.0,19.97,11111222 
TABS,ioos:station:TABS:A:1,1996-04-20T04:30:00Z,29.5325,-93.8116,-2.0,19.96,11111222 
TABS,ioos:station:TABS:A:1,1996-04-20T05:00:00Z,29.5325,-93.8116,-2.0,19.9,11111222 
TABS,ioos:station:TABS:A:1,1996-04-20T05:30:00Z,29.5325,-93.8116,-2.0,19.88,11111222 
TABS,ioos:station:TABS:A:1,1996-04-20T06:00:00Z,29.5325,-93.8116,-2.0,19.89,11111222 
TABS,ioos:station:TABS:A:1,1996-04-20T06:30:00Z,29.5325,-93.8116,-2.0,19.88,11111222 
TABS,ioos:station:TABS:A:1,1996-04-20T07:00:00Z,29.5325,-93.8116,-2.0,19.95,11111222 
TABS,ioos:station:TABS:A:1,1996-04-20T07:30:00Z,29.5325,-93.8116,-2.0,19.95,11111222 
TABS,ioos:station:TABS:A:1,1996-04-20T08:00:00Z,29.5325,-93.8116,-2.0,19.91,11111222 
TABS,ioos:station:TABS:A:1,1996-04-20T08:30:00Z,29.5325,-93.8116,-2.0,19.93,11111222 
TABS,ioos:station:TABS:A:1,1996-04-20T09:00:00Z,29.5325,-93.8116,-2.0,20.01,11111222 
TABS,ioos:station:TABS:A:1,1996-04-20T09:30:00Z,29.5325,-93.8116,-2.0,20.01,11111222 
TABS,ioos:station:TABS:A:1,1996-04-20T10:00:00Z,29.5325,-93.8116,-2.0,19.99,11111222 
TABS,ioos:station:TABS:A:1,1996-04-20T10:30:00Z,29.5325,-93.8116,-2.0,19.9,11111222 
TABS,ioos:station:TABS:A:1,1996-04-20T11:00:00Z,29.5325,-93.8116,-2.0,19.93,11111222 
TABS,ioos:station:TABS:A:1,1996-04-20T11:30:00Z,29.5325,-93.8116,-2.0,19.84,11111222 
TABS,ioos:station:TABS:A:1,1996-04-20T12:00:00Z,29.5325,-93.8116,-2.0,19.96,11111222 
TABS,ioos:station:TABS:A:1,1996-04-20T12:30:00Z,29.5325,-93.8116,-2.0,19.79,11111222 
TABS,ioos:station:TABS:A:1,1996-04-20T13:00:00Z,29.5325,-93.8116,-2.0,19.77,11111222 
TABS,ioos:station:TABS:A:1,1996-04-20T13:30:00Z,29.5325,-93.8116,-2.0,19.82,11111222 
TABS,ioos:station:TABS:A:1,1996-04-20T14:00:00Z,29.5325,-93.8116,-2.0,19.91,11111222 
TABS,ioos:station:TABS:A:1,1996-04-20T14:30:00Z,29.5325,-93.8116,-2.0,20.04,11111222 
TABS,ioos:station:TABS:A:1,1996-04-20T15:00:00Z,29.5325,-93.8116,-2.0,20.12,11111222 
TABS,ioos:station:TABS:A:1,1996-04-20T15:30:00Z,29.5325,-93.8116,-2.0,20.08,11111222 
TABS,ioos:station:TABS:A:1,1996-04-20T16:00:00Z,29.5325,-93.8116,-2.0,20.18,11111222 
TABS,ioos:station:TABS:A:1,1996-04-20T16:30:00Z,29.5325,-93.8116,-2.0,20.33,11111222 
TABS,ioos:station:TABS:A:1,1996-04-20T17:00:00Z,29.5325,-93.8116,-2.0,20.26,11111222 
TABS,ioos:station:TABS:A:1,1996-04-20T17:30:00Z,29.5325,-93.8116,-2.0,20.21,11111222 
TABS,ioos:station:TABS:A:1,1996-04-20T18:00:00Z,29.5325,-93.8116,-2.0,20.33,11111222 
TABS,ioos:station:TABS:A:1,1996-04-20T18:30:00Z,29.5325,-93.8116,-2.0,20.7,11111222 
TABS,ioos:station:TABS:A:1,1996-04-20T19:00:00Z,29.5325,-93.8116,-2.0,20.28,11111222 
TABS,ioos:station:TABS:A:1,1996-04-20T19:30:00Z,29.5325,-93.8116,-2.0,20.33,11111222 
TABS,ioos:station:TABS:A:1,1996-04-20T20:00:00Z,29.5325,-93.8116,-2.0,20.62,11111222 
TABS,ioos:station:TABS:A:1,1996-04-20T20:30:00Z,29.5325,-93.8116,-2.0,21.03,11111222 
TABS,ioos:station:TABS:A:1,1996-04-20T21:00:00Z,29.5325,-93.8116,-2.0,21.25,11111222 
TABS,ioos:station:TABS:A:1,1996-04-20T21:30:00Z,29.5325,-93.8116,-2.0,21.32,11111222 
TABS,ioos:station:TABS:A:1,1996-04-20T22:00:00Z,29.5325,-93.8116,-2.0,21.29,11111222 
TABS,ioos:station:TABS:A:1,1996-04-20T22:30:00Z,29.5325,-93.8116,-2.0,21.27,11111222 
TABS,ioos:station:TABS:A:1,1996-04-20T23:00:00Z,29.5325,-93.8116,-2.0,21.15,11111222 
TABS,ioos:station:TABS:A:1,1996-04-20T23:30:00Z,29.5325,-93.8116,-2.0,21.05,11111222 
TABS,ioos:station:TABS:A:1,1996-04-21T00:00:00Z,29.5325,-93.8116,-2.0,21.04,11111222 
TABS,ioos:station:TABS:A:1,1996-04-21T00:30:00Z,29.5325,-93.8116,-2.0,21.04,11111222 
TABS,ioos:station:TABS:A:1,1996-04-21T01:00:00Z,29.5325,-93.8116,-2.0,20.95,11111222 
TABS,ioos:station:TABS:A:1,1996-04-21T01:30:00Z,29.5325,-93.8116,-2.0,20.87,11111222 
TABS,ioos:station:TABS:A:1,1996-04-21T02:00:00Z,29.5325,-93.8116,-2.0,20.89,11111222 
TABS,ioos:station:TABS:A:1,1996-04-21T02:30:00Z,29.5325,-93.8116,-2.0,20.83,11111222 
TABS,ioos:station:TABS:A:1,1996-04-21T03:00:00Z,29.5325,-93.8116,-2.0,20.72,11111222 
TABS,ioos:station:TABS:A:1,1996-04-21T03:30:00Z,29.5325,-93.8116,-2.0,20.63,11111222 
TABS,ioos:station:TABS:A:1,1996-04-21T04:00:00Z,29.5325,-93.8116,-2.0,20.61,11111222 
TABS,ioos:station:TABS:A:1,1996-04-21T04:30:00Z,29.5325,-93.8116,-2.0,20.62,11111222 
TABS,ioos:station:TABS:A:1,1996-04-21T05:00:00Z,29.5325,-93.8116,-2.0,20.62,11111222 
TABS,ioos:station:TABS:A:1,1996-04-21T05:30:00Z,29.5325,-93.8116,-2.0,20.62,11111222 
TABS,ioos:station:TABS:A:1,1996-04-21T06:00:00Z,29.5325,-93.8116,-2.0,20.69,11111222 
TABS,ioos:station:TABS:A:1,1996-04-21T06:30:00Z,29.5325,-93.8116,-2.0,20.81,11111222 
TABS,ioos:station:TABS:A:1,1996-04-21T07:00:00Z,29.5325,-93.8116,-2.0,20.89,11111222 
TABS,ioos:station:TABS:A:1,1996-04-21T07:30:00Z,29.5325,-93.8116,-2.0,20.8,11111222 
TABS,ioos:station:TABS:A:1,1996-04-21T08:00:00Z,29.5325,-93.8116,-2.0,20.73,11111222 
TABS,ioos:station:TABS:A:1,1996-04-21T08:30:00Z,29.5325,-93.8116,-2.0,20.68,11111222 
TABS,ioos:station:TABS:A:1,1996-04-21T09:00:00Z,29.5325,-93.8116,-2.0,20.64,11111222 
TABS,ioos:station:TABS:A:1,1996-04-21T09:30:00Z,29.5325,-93.8116,-2.0,20.57,11111222 
TABS,ioos:station:TABS:A:1,1996-04-21T10:00:00Z,29.5325,-93.8116,-2.0,20.52,11111222 
TABS,ioos:station:TABS:A:1,1996-04-21T10:30:00Z,29.5325,-93.8116,-2.0,20.45,11111222 
TABS,ioos:station:TABS:A:1,1996-04-21T11:00:00Z,29.5325,-93.8116,-2.0,20.38,11111222 
TABS,ioos:station:TABS:A:1,1996-04-21T11:30:00Z,29.5325,-93.8116,-2.0,20.43,11111222 
TABS,ioos:station:TABS:A:1,1996-04-21T12:00:00Z,29.5325,-93.8116,-2.0,20.42,11111222 
TABS,ioos:station:TABS:A:1,1996-04-21T12:30:00Z,29.5325,-93.8116,-2.0,20.44,11111222 
TABS,ioos:station:TABS:A:1,1996-04-21T13:00:00Z,29.5325,-93.8116,-2.0,20.45,11111222 
TABS,ioos:station:TABS:A:1,1996-04-21T13:30:00Z,29.5325,-93.8116,-2.0,20.51,11111222 
TABS,ioos:station:TABS:A:1,1996-04-21T14:00:00Z,29.5325,-93.8116,-2.0,20.62,11111222 
TABS,ioos:station:TABS:A:1,1996-04-21T14:30:00Z,29.5325,-93.8116,-2.0,20.71,11111222 
TABS,ioos:station:TABS:A:1,1996-04-21T15:00:00Z,29.5325,-93.8116,-2.0,20.79,11111222 
TABS,ioos:station:TABS:A:1,1996-04-21T15:30:00Z,29.5325,-93.8116,-2.0,20.91,11111222 
TABS,ioos:station:TABS:A:1,1996-04-21T16:00:00Z,29.5325,-93.8116,-2.0,20.95,11111222 
TABS,ioos:station:TABS:A:1,1996-04-21T16:30:00Z,29.5325,-93.8116,-2.0,20.97,11111222 
TABS,ioos:station:TABS:A:1,1996-04-21T17:00:00Z,29.5325,-93.8116,-2.0,21.05,11111222 
TABS,ioos:station:TABS:A:1,1996-04-21T17:30:00Z,29.5325,-93.8116,-2.0,21.11,11111222 
TABS,ioos:station:TABS:A:1,1996-04-21T18:00:00Z,29.5325,-93.8116,-2.0,21.15,11111222 
TABS,ioos:station:TABS:A:1,1996-04-21T18:30:00Z,29.5325,-93.8116,-2.0,21.24,11111222 
TABS,ioos:station:TABS:A:1,1996-04-21T19:00:00Z,29.5325,-93.8116,-2.0,21.31,11111222 
TABS,ioos:station:TABS:A:1,1996-04-21T19:30:00Z,29.5325,-93.8116,-2.0,21.36,11111222 
TABS,ioos:station:TABS:A:1,1996-04-21T20:00:00Z,29.5325,-93.8116,-2.0,21.38,11111222 
TABS,ioos:station:TABS:A:1,1996-04-21T20:30:00Z,29.5325,-93.8116,-2.0,21.44,11111222 
TABS,ioos:station:TABS:A:1,1996-04-21T21:00:00Z,29.5325,-93.8116,-2.0,21.37,11111222 
TABS,ioos:station:TABS:A:1,1996-04-21T21:30:00Z,29.5325,-93.8116,-2.0,21.41,11111222 
TABS,ioos:station:TABS:A:1,1996-04-21T22:00:00Z,29.5325,-93.8116,-2.0,21.36,11111222 
TABS,ioos:station:TABS:A:1,1996-04-21T22:30:00Z,29.5325,-93.8116,-2.0,21.43,11111222 
TABS,ioos:station:TABS:A:1,1996-04-21T23:00:00Z,29.5325,-93.8116,-2.0,21.57,11111222 
TABS,ioos:station:TABS:A:1,1996-04-21T23:30:00Z,29.5325,-93.8116,-2.0,21.76,11111222 
TABS,ioos:station:TABS:A:1,1996-04-22T00:00:00Z,29.5325,-93.8116,-2.0,21.99,11111222 
TABS,ioos:station:TABS:A:1,1996-04-22T00:30:00Z,29.5325,-93.8116,-2.0,22.17,11111222 
TABS,ioos:station:TABS:A:1,1996-04-22T01:00:00Z,29.5325,-93.8116,-2.0,22.27,11111222 
TABS,ioos:station:TABS:A:1,1996-04-22T01:30:00Z,29.5325,-93.8116,-2.0,22.28,11111222 
TABS,ioos:station:TABS:A:1,1996-04-22T02:00:00Z,29.5325,-93.8116,-2.0,22.2,11111222 
TABS,ioos:station:TABS:A:1,1996-04-22T02:30:00Z,29.5325,-93.8116,-2.0,22.03,11111222 
TABS,ioos:station:TABS:A:1,1996-04-22T03:00:00Z,29.5325,-93.8116,-2.0,21.9,11111222 
TABS,ioos:station:TABS:A:1,1996-04-22T03:30:00Z,29.5325,-93.8116,-2.0,21.81,11111222 
TABS,ioos:station:TABS:A:1,1996-04-22T04:00:00Z,29.5325,-93.8116,-2.0,21.74,11111222 
TABS,ioos:station:TABS:A:1,1996-04-22T04:30:00Z,29.5325,-93.8116,-2.0,21.69,11111222 
TABS,ioos:station:TABS:A:1,1996-04-22T05:00:00Z,29.5325,-93.8116,-2.0,21.58,11111222 
TABS,ioos:station:TABS:A:1,1996-04-22T05:30:00Z,29.5325,-93.8116,-2.0,21.51,11111222 
TABS,ioos:station:TABS:A:1,1996-04-22T06:00:00Z,29.5325,-93.8116,-2.0,21.5,11111222 
TABS,ioos:station:TABS:A:1,1996-04-22T06:30:00Z,29.5325,-93.8116,-2.0,21.47,11111222 
TABS,ioos:station:TABS:A:1,1996-04-22T07:00:00Z,29.5325,-93.8116,-2.0,21.36,11111222 
TABS,ioos:station:TABS:A:1,1996-04-22T07:30:00Z,29.5325,-93.8116,-2.0,21.37,11111222 
TABS,ioos:station:TABS:A:1,1996-04-22T08:00:00Z,29.5325,-93.8116,-2.0,21.36,11111222 
TABS,ioos:station:TABS:A:1,1996-04-22T08:30:00Z,29.5325,-93.8116,-2.0,21.39,11111222 
TABS,ioos:station:TABS:A:1,1996-04-22T09:00:00Z,29.5325,-93.8116,-2.0,21.33,11111222 
TABS,ioos:station:TABS:A:1,1996-04-22T09:30:00Z,29.5325,-93.8116,-2.0,21.31,11111222 
TABS,ioos:station:TABS:A:1,1996-04-22T10:00:00Z,29.5325,-93.8116,-2.0,21.33,11111222 
TABS,ioos:station:TABS:A:1,1996-04-22T10:30:00Z,29.5325,-93.8116,-2.0,21.33,11111222 
TABS,ioos:station:TABS:A:1,1996-04-22T11:00:00Z,29.5325,-93.8116,-2.0,21.33,11111222 
TABS,ioos:station:TABS:A:1,1996-04-22T11:30:00Z,29.5325,-93.8116,-2.0,21.34,11111222 
TABS,ioos:station:TABS:A:1,1996-04-22T12:00:00Z,29.5325,-93.8116,-2.0,21.3,11111222 
TABS,ioos:station:TABS:A:1,1996-04-22T12:30:00Z,29.5325,-93.8116,-2.0,21.26,11111222 
TABS,ioos:station:TABS:A:1,1996-04-22T13:00:00Z,29.5325,-93.8116,-2.0,21.28,11111222 
TABS,ioos:station:TABS:A:1,1996-04-22T13:30:00Z,29.5325,-93.8116,-2.0,21.39,11111222 
TABS,ioos:station:TABS:A:1,1996-04-22T14:00:00Z,29.5325,-93.8116,-2.0,21.46,11111222 
TABS,ioos:station:TABS:A:1,1996-04-22T14:30:00Z,29.5325,-93.8116,-2.0,21.49,11111222 
TABS,ioos:station:TABS:A:1,1996-04-22T15:00:00Z,29.5325,-93.8116,-2.0,21.52,11111222 
TABS,ioos:station:TABS:A:1,1996-04-22T15:30:00Z,29.5325,-93.8116,-2.0,21.49,11111222 
TABS,ioos:station:TABS:A:1,1996-04-22T16:00:00Z,29.5325,-93.8116,-2.0,21.49,11111222 
TABS,ioos:station:TABS:A:1,1996-04-22T16:30:00Z,29.5325,-93.8116,-2.0,21.47,11111222 
TABS,ioos:station:TABS:A:1,1996-04-22T17:00:00Z,29.5325,-93.8116,-2.0,21.39,11111222 
TABS,ioos:station:TABS:A:1,1996-04-22T17:30:00Z,29.5325,-93.8116,-2.0,21.39,11111222 
TABS,ioos:station:TABS:A:1,1996-04-22T18:00:00Z,29.5325,-93.8116,-2.0,21.52,11111222 
TABS,ioos:station:TABS:A:1,1996-04-22T18:30:00Z,29.5325,-93.8116,-2.0,21.72,11111222 
TABS,ioos:station:TABS:A:1,1996-04-22T19:00:00Z,29.5325,-93.8116,-2.0,21.77,11111222 
TABS,ioos:station:TABS:A:1,1996-04-22T19:30:00Z,29.5325,-93.8116,-2.0,21.78,11111222 
TABS,ioos:station:TABS:A:1,1996-04-22T20:00:00Z,29.5325,-93.8116,-2.0,21.78,11111222 
TABS,ioos:station:TABS:A:1,1996-04-22T20:30:00Z,29.5325,-93.8116,-2.0,21.85,11111222 
TABS,ioos:station:TABS:A:1,1996-04-22T21:00:00Z,29.5325,-93.8116,-2.0,21.74,11111222 
TABS,ioos:station:TABS:A:1,1996-04-22T21:30:00Z,29.5325,-93.8116,-2.0,21.72,11111222 
TABS,ioos:station:TABS:A:1,1996-04-22T22:00:00Z,29.5325,-93.8116,-2.0,21.72,11111222 
TABS,ioos:station:TABS:A:1,1996-04-22T22:30:00Z,29.5325,-93.8116,-2.0,21.75,11111222 
TABS,ioos:station:TABS:A:1,1996-04-22T23:00:00Z,29.5325,-93.8116,-2.0,21.7,11111222 
TABS,ioos:station:TABS:A:1,1996-04-22T23:30:00Z,29.5325,-93.8116,-2.0,21.55,11111222 
TABS,ioos:station:TABS:A:1,1996-04-23T00:00:00Z,29.5325,-93.8116,-2.0,21.54,11111222 
TABS,ioos:station:TABS:A:1,1996-04-23T00:30:00Z,29.5325,-93.8116,-2.0,21.51,11111222 
TABS,ioos:station:TABS:A:1,1996-04-23T01:00:00Z,29.5325,-93.8116,-2.0,21.52,11111222 
TABS,ioos:station:TABS:A:1,1996-04-23T01:30:00Z,29.5325,-93.8116,-2.0,21.52,11111222 
TABS,ioos:station:TABS:A:1,1996-04-23T02:00:00Z,29.5325,-93.8116,-2.0,21.5,11111222 
TABS,ioos:station:TABS:A:1,1996-04-23T02:30:00Z,29.5325,-93.8116,-2.0,21.43,11111222 
TABS,ioos:station:TABS:A:1,1996-04-23T03:00:00Z,29.5325,-93.8116,-2.0,21.43,11111222 
TABS,ioos:station:TABS:A:1,1996-04-23T03:30:00Z,29.5325,-93.8116,-2.0,21.44,11111222 
TABS,ioos:station:TABS:A:1,1996-04-23T04:00:00Z,29.5325,-93.8116,-2.0,21.46,11111222 
TABS,ioos:station:TABS:A:1,1996-04-23T04:30:00Z,29.5325,-93.8116,-2.0,21.53,11111222 
TABS,ioos:station:TABS:A:1,1996-04-23T05:00:00Z,29.5325,-93.8116,-2.0,21.67,11111222 
TABS,ioos:station:TABS:A:1,1996-04-23T05:30:00Z,29.5325,-93.8116,-2.0,21.96,11111222 
TABS,ioos:station:TABS:A:1,1996-04-23T06:00:00Z,29.5325,-93.8116,-2.0,22.0,11111222 
TABS,ioos:station:TABS:A:1,1996-04-23T06:30:00Z,29.5325,-93.8116,-2.0,22.15,11111222 
TABS,ioos:station:TABS:A:1,1996-04-23T07:00:00Z,29.5325,-93.8116,-2.0,22.2,11111222 
TABS,ioos:station:TABS:A:1,1996-04-23T07:30:00Z,29.5325,-93.8116,-2.0,22.24,11111222 
TABS,ioos:station:TABS:A:1,1996-04-23T08:00:00Z,29.5325,-93.8116,-2.0,22.16,11111222 
TABS,ioos:station:TABS:A:1,1996-04-23T08:30:00Z,29.5325,-93.8116,-2.0,21.99,11111222 
TABS,ioos:station:TABS:A:1,1996-04-23T09:00:00Z,29.5325,-93.8116,-2.0,21.85,11111222 
TABS,ioos:station:TABS:A:1,1996-04-23T09:30:00Z,29.5325,-93.8116,-2.0,21.76,11111222 
TABS,ioos:station:TABS:A:1,1996-04-23T10:00:00Z,29.5325,-93.8116,-2.0,21.63,11111222 